Year,Month,Day,Hour,Minute,Value (Times are PST for temperature in C)
2019,11,02,00,00,23.60
2019,11,02,00,01,23.70
2019,11,02,00,02,23.70
2019,11,02,00,03,23.70
2019,11,02,00,04,23.70
2019,11,02,00,05,23.60
2019,11,02,00,06,23.60
2019,11,02,00,07,23.50
2019,11,02,00,08,23.50
2019,11,02,00,09,23.40
2019,11,02,00,10,23.40
2019,11,02,00,11,23.40
2019,11,02,00,12,23.40
2019,11,02,00,13,23.30
2019,11,02,00,14,23.30
2019,11,02,00,15,23.30
2019,11,02,00,16,23.30
2019,11,02,00,17,23.30
2019,11,02,00,18,23.20
2019,11,02,00,19,23.20
2019,11,02,00,20,23.20
2019,11,02,00,21,23.20
2019,11,02,00,22,23.20
2019,11,02,00,23,23.20
2019,11,02,00,24,23.20
2019,11,02,00,25,23.20
2019,11,02,00,26,23.20
2019,11,02,00,27,23.20
2019,11,02,00,28,23.20
2019,11,02,00,29,23.20
2019,11,02,00,30,23.20
2019,11,02,00,31,23.20
2019,11,02,00,32,23.20
2019,11,02,00,33,23.20
2019,11,02,00,34,23.20
2019,11,02,00,35,23.20
2019,11,02,00,36,23.20
2019,11,02,00,37,23.20
2019,11,02,00,38,23.20
2019,11,02,00,39,23.10
2019,11,02,00,40,23.10
2019,11,02,00,41,23.10
2019,11,02,00,42,23.10
2019,11,02,00,43,23.10
2019,11,02,00,44,23.10
2019,11,02,00,45,23.10
2019,11,02,00,46,23.20
2019,11,02,00,47,23.20
2019,11,02,00,48,23.20
2019,11,02,00,49,23.30
2019,11,02,00,50,23.30
2019,11,02,00,51,23.30
2019,11,02,00,52,23.30
2019,11,02,00,53,23.30
2019,11,02,00,54,23.30
2019,11,02,00,55,23.30
2019,11,02,00,56,23.20
2019,11,02,00,57,23.20
2019,11,02,00,58,23.20
2019,11,02,00,59,23.20
2019,11,02,01,00,23.10
2019,11,02,01,01,23.10
2019,11,02,01,02,23.10
2019,11,02,01,03,23.00
2019,11,02,01,04,23.00
2019,11,02,01,05,23.00
2019,11,02,01,06,22.90
2019,11,02,01,07,22.90
2019,11,02,01,08,22.90
2019,11,02,01,09,22.90
2019,11,02,01,10,22.80
2019,11,02,01,11,22.80
2019,11,02,01,12,22.90
2019,11,02,01,13,22.90
2019,11,02,01,14,22.90
2019,11,02,01,15,22.90
2019,11,02,01,16,22.90
2019,11,02,01,17,22.90
2019,11,02,01,18,22.80
2019,11,02,01,19,22.80
2019,11,02,01,20,22.90
2019,11,02,01,21,22.90
2019,11,02,01,22,22.90
2019,11,02,01,23,22.90
2019,11,02,01,24,22.90
2019,11,02,01,25,22.90
2019,11,02,01,26,22.90
2019,11,02,01,27,22.90
2019,11,02,01,28,22.90
2019,11,02,01,29,22.90
2019,11,02,01,30,22.80
2019,11,02,01,31,22.80
2019,11,02,01,32,22.80
2019,11,02,01,33,22.80
2019,11,02,01,34,22.80
2019,11,02,01,35,22.80
2019,11,02,01,36,22.80
2019,11,02,01,37,22.80
2019,11,02,01,38,22.70
2019,11,02,01,39,22.70
2019,11,02,01,40,22.70
2019,11,02,01,41,22.70
2019,11,02,01,42,22.70
2019,11,02,01,43,22.70
2019,11,02,01,44,22.70
2019,11,02,01,45,22.60
2019,11,02,01,46,22.70
2019,11,02,01,47,22.70
2019,11,02,01,48,22.70
2019,11,02,01,49,22.70
2019,11,02,01,50,22.70
2019,11,02,01,51,22.70
2019,11,02,01,52,22.70
2019,11,02,01,53,22.70
2019,11,02,01,54,22.70
2019,11,02,01,55,22.70
2019,11,02,01,56,22.70
2019,11,02,01,57,22.70
2019,11,02,01,58,22.70
2019,11,02,01,59,22.70
2019,11,02,02,00,22.80
2019,11,02,02,01,22.80
2019,11,02,02,02,22.70
2019,11,02,02,03,22.70
2019,11,02,02,04,22.70
2019,11,02,02,05,22.70
2019,11,02,02,06,22.70
2019,11,02,02,07,22.70
2019,11,02,02,08,22.70
2019,11,02,02,09,22.70
2019,11,02,02,10,22.70
2019,11,02,02,11,22.60
2019,11,02,02,12,22.60
2019,11,02,02,13,22.60
2019,11,02,02,14,22.60
2019,11,02,02,15,22.60
2019,11,02,02,16,22.60
2019,11,02,02,17,22.60
2019,11,02,02,18,22.70
2019,11,02,02,19,22.70
2019,11,02,02,20,22.70
2019,11,02,02,21,22.70
2019,11,02,02,22,22.60
2019,11,02,02,23,22.60
2019,11,02,02,24,22.70
2019,11,02,02,25,22.80
2019,11,02,02,26,22.80
2019,11,02,02,27,22.90
2019,11,02,02,28,22.90
2019,11,02,02,29,22.90
2019,11,02,02,30,22.90
2019,11,02,02,31,22.90
2019,11,02,02,32,22.90
2019,11,02,02,33,22.90
2019,11,02,02,34,22.90
2019,11,02,02,35,22.90
2019,11,02,02,36,22.90
2019,11,02,02,37,22.90
2019,11,02,02,38,22.90
2019,11,02,02,39,23.00
2019,11,02,02,40,23.00
2019,11,02,02,41,23.00
2019,11,02,02,42,23.00
2019,11,02,02,43,23.00
2019,11,02,02,44,23.00
2019,11,02,02,45,23.10
2019,11,02,02,46,23.20
2019,11,02,02,47,23.30
2019,11,02,02,48,23.40
2019,11,02,02,49,23.50
2019,11,02,02,50,23.50
2019,11,02,02,51,23.50
2019,11,02,02,52,23.40
2019,11,02,02,53,23.30
2019,11,02,02,54,23.20
2019,11,02,02,55,23.10
2019,11,02,02,56,23.00
2019,11,02,02,57,22.90
2019,11,02,02,58,22.90
2019,11,02,02,59,22.90
2019,11,02,03,00,23.00
2019,11,02,03,01,22.90
2019,11,02,03,02,22.90
2019,11,02,03,03,22.80
2019,11,02,03,04,22.80
2019,11,02,03,05,22.80
2019,11,02,03,06,22.70
2019,11,02,03,07,22.70
2019,11,02,03,08,22.70
2019,11,02,03,09,22.70
2019,11,02,03,10,22.70
2019,11,02,03,11,22.70
2019,11,02,03,12,22.70
2019,11,02,03,13,22.70
2019,11,02,03,14,22.70
2019,11,02,03,15,22.70
2019,11,02,03,16,22.70
2019,11,02,03,17,22.70
2019,11,02,03,18,22.70
2019,11,02,03,19,22.80
2019,11,02,03,20,22.80
2019,11,02,03,21,22.90
2019,11,02,03,22,22.90
2019,11,02,03,23,22.80
2019,11,02,03,24,22.80
2019,11,02,03,25,22.80
2019,11,02,03,26,22.80
2019,11,02,03,27,22.70
2019,11,02,03,28,22.70
2019,11,02,03,29,22.70
2019,11,02,03,30,22.70
2019,11,02,03,31,22.70
2019,11,02,03,32,22.70
2019,11,02,03,33,22.70
2019,11,02,03,34,22.70
2019,11,02,03,35,22.70
2019,11,02,03,36,22.70
2019,11,02,03,37,22.70
2019,11,02,03,38,22.70
2019,11,02,03,39,22.70
2019,11,02,03,40,22.70
2019,11,02,03,41,22.70
2019,11,02,03,42,22.70
2019,11,02,03,43,22.80
2019,11,02,03,44,22.90
2019,11,02,03,45,22.90
2019,11,02,03,46,22.90
2019,11,02,03,47,22.90
2019,11,02,03,48,22.80
2019,11,02,03,49,22.80
2019,11,02,03,50,22.80
2019,11,02,03,51,22.70
2019,11,02,03,52,22.70
2019,11,02,03,53,22.70
2019,11,02,03,54,22.70
2019,11,02,03,55,22.70
2019,11,02,03,56,22.60
2019,11,02,03,57,22.60
2019,11,02,03,58,22.60
2019,11,02,03,59,22.50
2019,11,02,04,00,22.50
2019,11,02,04,01,22.50
2019,11,02,04,02,22.60
2019,11,02,04,03,22.60
2019,11,02,04,04,22.70
2019,11,02,04,05,22.70
2019,11,02,04,06,22.80
2019,11,02,04,07,22.90
2019,11,02,04,08,22.90
2019,11,02,04,09,22.90
2019,11,02,04,10,22.90
2019,11,02,04,11,22.90
2019,11,02,04,12,22.80
2019,11,02,04,13,22.80
2019,11,02,04,14,22.70
2019,11,02,04,15,22.70
2019,11,02,04,16,22.70
2019,11,02,04,17,22.80
2019,11,02,04,18,22.80
2019,11,02,04,19,22.80
2019,11,02,04,20,22.80
2019,11,02,04,21,22.80
2019,11,02,04,22,22.90
2019,11,02,04,23,22.90
2019,11,02,04,24,22.90
2019,11,02,04,25,22.90
2019,11,02,04,26,22.90
2019,11,02,04,27,22.90
2019,11,02,04,28,22.90
2019,11,02,04,29,22.90
2019,11,02,04,30,22.90
2019,11,02,04,31,22.90
2019,11,02,04,32,22.90
2019,11,02,04,33,22.90
2019,11,02,04,34,22.90
2019,11,02,04,35,22.90
2019,11,02,04,36,22.80
2019,11,02,04,37,22.80
2019,11,02,04,38,22.80
2019,11,02,04,39,22.80
2019,11,02,04,40,22.80
2019,11,02,04,41,22.80
2019,11,02,04,42,22.80
2019,11,02,04,43,22.80
2019,11,02,04,44,22.80
2019,11,02,04,45,22.80
2019,11,02,04,46,22.90
2019,11,02,04,47,22.90
2019,11,02,04,48,23.00
2019,11,02,04,49,23.00
2019,11,02,04,50,23.00
2019,11,02,04,51,23.10
2019,11,02,04,52,23.10
2019,11,02,04,53,23.10
2019,11,02,04,54,23.10
2019,11,02,04,55,23.10
2019,11,02,04,56,23.10
2019,11,02,04,57,23.20
2019,11,02,04,58,23.20
2019,11,02,04,59,23.20
2019,11,02,05,00,23.20
2019,11,02,05,01,23.20
2019,11,02,05,02,23.20
2019,11,02,05,03,23.20
2019,11,02,05,04,23.20
2019,11,02,05,05,23.20
2019,11,02,05,06,23.20
2019,11,02,05,07,23.20
2019,11,02,05,08,23.20
2019,11,02,05,09,23.30
2019,11,02,05,10,23.30
2019,11,02,05,11,23.30
2019,11,02,05,12,23.30
2019,11,02,05,13,23.30
2019,11,02,05,14,23.30
2019,11,02,05,15,23.30
2019,11,02,05,16,23.30
2019,11,02,05,17,23.30
2019,11,02,05,18,23.30
2019,11,02,05,19,23.30
2019,11,02,05,20,23.30
2019,11,02,05,21,23.40
2019,11,02,05,22,23.40
2019,11,02,05,23,23.40
2019,11,02,05,24,23.40
2019,11,02,05,25,23.40
2019,11,02,05,26,23.40
2019,11,02,05,27,23.40
2019,11,02,05,28,23.40
2019,11,02,05,29,23.40
2019,11,02,05,30,23.40
2019,11,02,05,31,23.50
2019,11,02,05,32,23.50
2019,11,02,05,33,23.50
2019,11,02,05,34,23.60
2019,11,02,05,35,23.60
2019,11,02,05,36,23.60
2019,11,02,05,37,23.60
2019,11,02,05,38,23.60
2019,11,02,05,39,23.60
2019,11,02,05,40,23.60
2019,11,02,05,41,23.70
2019,11,02,05,42,23.70
2019,11,02,05,43,23.70
2019,11,02,05,44,23.70
2019,11,02,05,45,23.70
2019,11,02,05,46,23.70
2019,11,02,05,47,23.70
2019,11,02,05,48,23.70
2019,11,02,05,49,23.70
2019,11,02,05,50,23.70
2019,11,02,05,51,23.60
2019,11,02,05,52,23.60
2019,11,02,05,53,23.70
2019,11,02,05,54,23.70
2019,11,02,05,55,23.80
2019,11,02,05,56,23.80
2019,11,02,05,57,23.80
2019,11,02,05,58,23.80
2019,11,02,05,59,23.80
2019,11,02,06,00,23.80
2019,11,02,06,01,23.90
2019,11,02,06,02,23.90
2019,11,02,06,03,24.00
2019,11,02,06,04,23.90
2019,11,02,06,05,23.90
2019,11,02,06,06,23.80
2019,11,02,06,07,23.80
2019,11,02,06,08,23.80
2019,11,02,06,09,23.70
2019,11,02,06,10,23.70
2019,11,02,06,11,23.70
2019,11,02,06,12,23.70
2019,11,02,06,13,23.70
2019,11,02,06,14,23.80
2019,11,02,06,15,23.80
2019,11,02,06,16,23.80
2019,11,02,06,17,23.80
2019,11,02,06,18,23.80
2019,11,02,06,19,23.80
2019,11,02,06,20,23.80
2019,11,02,06,21,23.80
2019,11,02,06,22,23.80
2019,11,02,06,23,23.80
2019,11,02,06,24,23.80
2019,11,02,06,25,23.80
2019,11,02,06,26,23.80
2019,11,02,06,27,23.80
2019,11,02,06,28,23.80
2019,11,02,06,29,23.80
2019,11,02,06,30,23.80
2019,11,02,06,31,23.80
2019,11,02,06,32,23.80
2019,11,02,06,33,23.80
2019,11,02,06,34,23.90
2019,11,02,06,35,23.90
2019,11,02,06,36,23.90
2019,11,02,06,37,24.00
2019,11,02,06,38,24.00
2019,11,02,06,39,24.00
2019,11,02,06,40,24.00
2019,11,02,06,41,24.00
2019,11,02,06,42,24.00
2019,11,02,06,43,24.00
2019,11,02,06,44,24.00
2019,11,02,06,45,24.00
2019,11,02,06,46,24.00
2019,11,02,06,47,24.10
2019,11,02,06,48,24.10
2019,11,02,06,49,24.20
2019,11,02,06,50,24.20
2019,11,02,06,51,24.20
2019,11,02,06,52,24.20
2019,11,02,06,53,24.10
2019,11,02,06,54,24.10
2019,11,02,06,55,24.00
2019,11,02,06,56,23.90
2019,11,02,06,57,23.90
2019,11,02,06,58,23.80
2019,11,02,06,59,23.80
2019,11,02,07,00,23.80
2019,11,02,07,01,23.70
2019,11,02,07,02,23.70
2019,11,02,07,03,23.70
2019,11,02,07,04,23.70
2019,11,02,07,05,23.60
2019,11,02,07,06,23.60
2019,11,02,07,07,23.60
2019,11,02,07,08,23.60
2019,11,02,07,09,23.50
2019,11,02,07,10,23.50
2019,11,02,07,11,23.40
2019,11,02,07,12,23.40
2019,11,02,07,13,23.50
2019,11,02,07,14,23.50
2019,11,02,07,15,23.60
2019,11,02,07,16,23.60
2019,11,02,07,17,23.70
2019,11,02,07,18,23.90
2019,11,02,07,19,24.00
2019,11,02,07,20,24.20
2019,11,02,07,21,24.20
2019,11,02,07,22,24.30
2019,11,02,07,23,24.30
2019,11,02,07,24,24.40
2019,11,02,07,25,24.50
2019,11,02,07,26,24.60
2019,11,02,07,27,24.70
2019,11,02,07,28,24.80
2019,11,02,07,29,24.80
2019,11,02,07,30,24.90
2019,11,02,07,31,24.90
2019,11,02,07,32,25.00
2019,11,02,07,33,25.00
2019,11,02,07,34,25.00
2019,11,02,07,35,25.10
2019,11,02,07,36,25.10
2019,11,02,07,37,25.10
2019,11,02,07,38,25.10
2019,11,02,07,39,25.10
2019,11,02,07,40,25.00
2019,11,02,07,41,25.00
2019,11,02,07,42,25.00
2019,11,02,07,43,25.00
2019,11,02,07,44,25.00
2019,11,02,07,45,25.00
2019,11,02,07,46,25.00
2019,11,02,07,47,24.90
2019,11,02,07,48,24.90
2019,11,02,07,49,24.80
2019,11,02,07,50,24.80
2019,11,02,07,51,24.70
2019,11,02,07,52,24.70
2019,11,02,07,53,24.60
2019,11,02,07,54,24.50
2019,11,02,07,55,24.40
2019,11,02,07,56,24.40
2019,11,02,07,57,24.30
2019,11,02,07,58,24.30
2019,11,02,07,59,24.30
2019,11,02,08,00,24.30
2019,11,02,08,01,24.40
2019,11,02,08,02,24.50
2019,11,02,08,03,24.60
2019,11,02,08,04,24.70
2019,11,02,08,05,24.80
2019,11,02,08,06,24.80
2019,11,02,08,07,24.80
2019,11,02,08,08,24.70
2019,11,02,08,09,24.60
2019,11,02,08,10,24.50
2019,11,02,08,11,24.40
2019,11,02,08,12,24.30
2019,11,02,08,13,24.20
2019,11,02,08,14,24.10
2019,11,02,08,15,24.10
2019,11,02,08,16,24.00
2019,11,02,08,17,23.90
2019,11,02,08,18,23.90
2019,11,02,08,19,23.90
2019,11,02,08,20,23.80
2019,11,02,08,21,23.80
2019,11,02,08,22,23.80
2019,11,02,08,23,23.80
2019,11,02,08,24,23.80
2019,11,02,08,25,23.80
2019,11,02,08,26,23.80
2019,11,02,08,27,23.80
2019,11,02,08,28,23.70
2019,11,02,08,29,23.80
2019,11,02,08,30,23.90
2019,11,02,08,31,23.90
2019,11,02,08,32,24.00
2019,11,02,08,33,24.10
2019,11,02,08,34,24.00
2019,11,02,08,35,24.00
2019,11,02,08,36,24.00
2019,11,02,08,37,23.90
2019,11,02,08,38,23.90
2019,11,02,08,39,23.90
2019,11,02,08,40,24.00
2019,11,02,08,41,24.00
2019,11,02,08,42,24.00
2019,11,02,08,43,24.00
2019,11,02,08,44,24.10
2019,11,02,08,45,24.10
2019,11,02,08,46,24.10
2019,11,02,08,47,24.20
2019,11,02,08,48,24.20
2019,11,02,08,49,24.30
2019,11,02,08,50,24.30
2019,11,02,08,51,24.30
2019,11,02,08,52,24.40
2019,11,02,08,53,24.40
2019,11,02,08,54,24.40
2019,11,02,08,55,24.30
2019,11,02,08,56,24.30
2019,11,02,08,57,24.30
2019,11,02,08,58,24.30
2019,11,02,08,59,24.30
2019,11,02,09,00,24.20
2019,11,02,09,01,24.20
2019,11,02,09,02,24.20
2019,11,02,09,03,24.20
2019,11,02,09,04,24.20
2019,11,02,09,05,24.20
2019,11,02,09,06,24.10
2019,11,02,09,07,24.10
2019,11,02,09,08,24.10
2019,11,02,09,09,24.20
2019,11,02,09,10,24.20
2019,11,02,09,11,24.20
2019,11,02,09,12,24.20
2019,11,02,09,13,24.20
2019,11,02,09,14,24.20
2019,11,02,09,15,24.20
2019,11,02,09,16,24.20
2019,11,02,09,17,24.20
2019,11,02,09,18,24.20
2019,11,02,09,19,24.20
2019,11,02,09,20,24.20
2019,11,02,09,21,24.20
2019,11,02,09,22,24.10
2019,11,02,09,23,24.10
2019,11,02,09,24,24.00
2019,11,02,09,25,24.00
2019,11,02,09,26,23.90
2019,11,02,09,27,23.90
2019,11,02,09,28,23.80
2019,11,02,09,29,23.80
2019,11,02,09,30,23.80
2019,11,02,09,31,23.90
2019,11,02,09,32,24.00
2019,11,02,09,33,24.20
2019,11,02,09,34,24.30
2019,11,02,09,35,24.40
2019,11,02,09,36,24.40
2019,11,02,09,37,24.40
2019,11,02,09,38,24.30
2019,11,02,09,39,24.30
2019,11,02,09,40,24.30
2019,11,02,09,41,24.30
2019,11,02,09,42,24.30
2019,11,02,09,43,24.30
2019,11,02,09,44,24.40
2019,11,02,09,45,24.40
2019,11,02,09,46,24.40
2019,11,02,09,47,24.50
2019,11,02,09,48,24.60
2019,11,02,09,49,24.60
2019,11,02,09,50,24.70
2019,11,02,09,51,24.70
2019,11,02,09,52,24.60
2019,11,02,09,53,24.60
2019,11,02,09,54,24.60
2019,11,02,09,55,24.50
2019,11,02,09,56,24.50
2019,11,02,09,57,24.40
2019,11,02,09,58,24.40
2019,11,02,09,59,24.40
2019,11,02,10,00,24.40
2019,11,02,10,01,24.40
2019,11,02,10,02,24.40
2019,11,02,10,03,24.40
2019,11,02,10,04,24.40
2019,11,02,10,05,24.40
2019,11,02,10,06,24.40
2019,11,02,10,07,24.40
2019,11,02,10,08,24.50
2019,11,02,10,09,24.50
2019,11,02,10,10,24.60
2019,11,02,10,11,24.70
2019,11,02,10,12,24.90
2019,11,02,10,13,25.10
2019,11,02,10,14,25.20
2019,11,02,10,15,25.30
2019,11,02,10,16,25.40
2019,11,02,10,17,25.50
2019,11,02,10,18,25.60
2019,11,02,10,19,25.60
2019,11,02,10,20,25.60
2019,11,02,10,21,25.60
2019,11,02,10,22,25.60
2019,11,02,10,23,25.50
2019,11,02,10,24,25.50
2019,11,02,10,25,25.40
2019,11,02,10,26,25.30
2019,11,02,10,27,25.20
2019,11,02,10,28,25.20
2019,11,02,10,29,25.20
2019,11,02,10,30,25.20
2019,11,02,10,31,25.20
2019,11,02,10,32,25.20
2019,11,02,10,33,25.30
2019,11,02,10,34,25.30
2019,11,02,10,35,25.40
2019,11,02,10,36,25.50
2019,11,02,10,37,25.50
2019,11,02,10,38,25.60
2019,11,02,10,39,25.90
2019,11,02,10,40,26.10
2019,11,02,10,41,26.40
2019,11,02,10,42,26.60
2019,11,02,10,43,26.80
2019,11,02,10,44,27.00
2019,11,02,10,45,27.20
2019,11,02,10,46,27.50
2019,11,02,10,47,27.80
2019,11,02,10,48,28.00
2019,11,02,10,49,28.20
2019,11,02,10,50,28.40
2019,11,02,10,51,28.50
2019,11,02,10,52,28.60
2019,11,02,10,53,28.70
2019,11,02,10,54,28.80
2019,11,02,10,55,28.90
2019,11,02,10,56,29.00
2019,11,02,10,57,29.10
2019,11,02,10,58,29.20
2019,11,02,10,59,29.20
2019,11,02,11,00,29.30
2019,11,02,11,01,29.40
2019,11,02,11,02,29.40
2019,11,02,11,03,29.40
2019,11,02,11,04,29.40
2019,11,02,11,05,29.30
2019,11,02,11,06,29.30
2019,11,02,11,07,29.30
2019,11,02,11,08,29.20
2019,11,02,11,09,29.20
2019,11,02,11,10,29.20
2019,11,02,11,11,29.20
2019,11,02,11,12,29.20
2019,11,02,11,13,29.20
2019,11,02,11,14,29.20
2019,11,02,11,15,29.30
2019,11,02,11,16,29.30
2019,11,02,11,17,29.30
2019,11,02,11,18,29.40
2019,11,02,11,19,29.50
2019,11,02,11,20,29.60
2019,11,02,11,21,29.60
2019,11,02,11,22,29.70
2019,11,02,11,23,29.80
2019,11,02,11,24,29.80
2019,11,02,11,25,29.90
2019,11,02,11,26,30.00
2019,11,02,11,27,30.00
2019,11,02,11,28,30.10
2019,11,02,11,29,30.10
2019,11,02,11,30,30.20
2019,11,02,11,31,30.30
2019,11,02,11,32,30.30
2019,11,02,11,33,30.40
2019,11,02,11,34,30.40
2019,11,02,11,35,30.50
2019,11,02,11,36,30.60
2019,11,02,11,37,30.60
2019,11,02,11,38,30.70
2019,11,02,11,39,30.80
2019,11,02,11,40,30.90
2019,11,02,11,41,31.00
2019,11,02,11,42,31.00
2019,11,02,11,43,31.10
2019,11,02,11,44,31.20
2019,11,02,11,45,31.20
2019,11,02,11,46,31.30
2019,11,02,11,47,31.40
2019,11,02,11,48,31.40
2019,11,02,11,49,31.50
2019,11,02,11,50,31.60
2019,11,02,11,51,31.70
2019,11,02,11,52,31.70
2019,11,02,11,53,31.80
2019,11,02,11,54,31.80
2019,11,02,11,55,31.90
2019,11,02,11,56,32.00
2019,11,02,11,57,32.10
2019,11,02,11,58,32.20
2019,11,02,11,59,32.20
2019,11,02,12,00,32.30
2019,11,02,12,01,32.40
2019,11,02,12,02,32.50
2019,11,02,12,03,32.50
2019,11,02,12,04,32.60
2019,11,02,12,05,32.80
2019,11,02,12,06,32.90
2019,11,02,12,07,33.00
2019,11,02,12,08,33.10
2019,11,02,12,09,33.20
2019,11,02,12,10,33.30
2019,11,02,12,11,33.40
2019,11,02,12,12,33.50
2019,11,02,12,13,33.70
2019,11,02,12,14,33.80
2019,11,02,12,15,33.90
2019,11,02,12,16,34.10
2019,11,02,12,17,34.20
2019,11,02,12,18,34.40
2019,11,02,12,19,34.50
2019,11,02,12,20,34.50
2019,11,02,12,21,34.60
2019,11,02,12,22,34.70
2019,11,02,12,23,34.80
2019,11,02,12,24,34.80
2019,11,02,12,25,34.90
2019,11,02,12,26,34.90
2019,11,02,12,27,35.00
2019,11,02,12,28,35.00
2019,11,02,12,29,35.10
2019,11,02,12,30,35.10
2019,11,02,12,31,35.20
2019,11,02,12,32,35.20
2019,11,02,12,33,35.30
2019,11,02,12,34,35.30
2019,11,02,12,35,35.40
2019,11,02,12,36,35.40
2019,11,02,12,37,35.40
2019,11,02,12,38,35.50
2019,11,02,12,39,35.50
2019,11,02,12,40,35.50
2019,11,02,12,41,35.60
2019,11,02,12,42,35.60
2019,11,02,12,43,35.60
2019,11,02,12,44,35.70
2019,11,02,12,45,35.70
2019,11,02,12,46,35.80
2019,11,02,12,47,35.80
2019,11,02,12,48,35.90
2019,11,02,12,49,35.90
2019,11,02,12,50,36.00
2019,11,02,12,51,36.00
2019,11,02,12,52,36.10
2019,11,02,12,53,36.10
2019,11,02,12,54,36.20
2019,11,02,12,55,36.30
2019,11,02,12,56,36.30
2019,11,02,12,57,36.40
2019,11,02,12,58,36.40
2019,11,02,12,59,36.40
2019,11,02,13,00,36.50
2019,11,02,13,01,36.40
2019,11,02,13,02,36.50
2019,11,02,13,03,36.40
2019,11,02,13,04,36.40
2019,11,02,13,05,36.50
2019,11,02,13,06,36.50
2019,11,02,13,07,36.50
2019,11,02,13,08,36.50
2019,11,02,13,09,36.50
2019,11,02,13,10,36.60
2019,11,02,13,11,36.60
2019,11,02,13,12,36.60
2019,11,02,13,13,36.60
2019,11,02,13,14,36.60
2019,11,02,13,15,36.60
2019,11,02,13,16,36.60
2019,11,02,13,17,36.60
2019,11,02,13,18,36.60
2019,11,02,13,19,36.60
2019,11,02,13,20,36.50
2019,11,02,13,21,36.50
2019,11,02,13,22,36.50
2019,11,02,13,23,36.50
2019,11,02,13,24,36.50
2019,11,02,13,25,36.60
2019,11,02,13,26,36.60
2019,11,02,13,27,36.60
2019,11,02,13,28,36.60
2019,11,02,13,29,36.60
2019,11,02,13,30,36.60
2019,11,02,13,31,36.70
2019,11,02,13,32,36.70
2019,11,02,13,33,36.70
2019,11,02,13,34,36.70
2019,11,02,13,35,36.80
2019,11,02,13,36,36.80
2019,11,02,13,37,36.80
2019,11,02,13,38,36.90
2019,11,02,13,39,36.90
2019,11,02,13,40,37.00
2019,11,02,13,41,37.00
2019,11,02,13,42,37.10
2019,11,02,13,43,37.20
2019,11,02,13,44,37.20
2019,11,02,13,45,37.30
2019,11,02,13,46,37.30
2019,11,02,13,47,37.40
2019,11,02,13,48,37.50
2019,11,02,13,49,37.60
2019,11,02,13,50,37.60
2019,11,02,13,51,37.60
2019,11,02,13,52,37.60
2019,11,02,13,53,37.60
2019,11,02,13,54,37.60
2019,11,02,13,55,37.60
2019,11,02,13,56,37.60
2019,11,02,13,57,37.60
2019,11,02,13,58,37.60
2019,11,02,13,59,37.60
2019,11,02,14,00,37.60
2019,11,02,14,01,37.60
2019,11,02,14,02,37.60
2019,11,02,14,03,37.60
2019,11,02,14,04,37.70
2019,11,02,14,05,37.70
2019,11,02,14,06,37.70
2019,11,02,14,07,37.70
2019,11,02,14,08,37.80
2019,11,02,14,09,37.80
2019,11,02,14,10,37.80
2019,11,02,14,11,37.80
2019,11,02,14,12,37.90
2019,11,02,14,13,37.90
2019,11,02,14,14,37.90
2019,11,02,14,15,37.90
2019,11,02,14,16,37.90
2019,11,02,14,17,37.90
2019,11,02,14,18,37.90
2019,11,02,14,19,37.90
2019,11,02,14,20,37.90
2019,11,02,14,21,37.90
2019,11,02,14,22,37.80
2019,11,02,14,23,37.80
2019,11,02,14,24,37.80
2019,11,02,14,25,37.80
2019,11,02,14,26,37.80
2019,11,02,14,27,37.80
2019,11,02,14,28,37.80
2019,11,02,14,29,37.80
2019,11,02,14,30,37.80
2019,11,02,14,31,37.80
2019,11,02,14,32,37.80
2019,11,02,14,33,37.90
2019,11,02,14,34,37.90
2019,11,02,14,35,37.90
2019,11,02,14,36,37.90
2019,11,02,14,37,37.90
2019,11,02,14,38,38.00
2019,11,02,14,39,38.00
2019,11,02,14,40,38.10
2019,11,02,14,41,38.10
2019,11,02,14,42,38.10
2019,11,02,14,43,38.20
2019,11,02,14,44,38.20
2019,11,02,14,45,38.30
2019,11,02,14,46,38.30
2019,11,02,14,47,38.30
2019,11,02,14,48,38.30
2019,11,02,14,49,38.20
2019,11,02,14,50,38.20
2019,11,02,14,51,38.10
2019,11,02,14,52,38.10
2019,11,02,14,53,38.00
2019,11,02,14,54,38.00
2019,11,02,14,55,38.00
2019,11,02,14,56,38.00
2019,11,02,14,57,37.90
2019,11,02,14,58,37.90
2019,11,02,14,59,37.90
2019,11,02,15,00,37.90
2019,11,02,15,01,37.90
2019,11,02,15,02,37.90
2019,11,02,15,03,37.90
2019,11,02,15,04,37.90
2019,11,02,15,05,38.00
2019,11,02,15,06,38.00
2019,11,02,15,07,38.00
2019,11,02,15,08,37.90
2019,11,02,15,09,37.90
2019,11,02,15,10,37.90
2019,11,02,15,11,37.90
2019,11,02,15,12,37.90
2019,11,02,15,13,37.90
2019,11,02,15,14,37.80
2019,11,02,15,15,37.80
2019,11,02,15,16,37.80
2019,11,02,15,17,37.70
2019,11,02,15,18,37.70
2019,11,02,15,19,37.70
2019,11,02,15,20,37.70
2019,11,02,15,21,37.60
2019,11,02,15,22,37.60
2019,11,02,15,23,37.50
2019,11,02,15,24,37.50
2019,11,02,15,25,37.40
2019,11,02,15,26,37.40
2019,11,02,15,27,37.40
2019,11,02,15,28,37.40
2019,11,02,15,29,37.40
2019,11,02,15,30,37.40
2019,11,02,15,31,37.40
2019,11,02,15,32,37.30
2019,11,02,15,33,37.30
2019,11,02,15,34,37.20
2019,11,02,15,35,37.20
2019,11,02,15,36,37.20
2019,11,02,15,37,37.20
2019,11,02,15,38,37.20
2019,11,02,15,39,37.20
2019,11,02,15,40,37.20
2019,11,02,15,41,37.20
2019,11,02,15,42,37.20
2019,11,02,15,43,37.30
2019,11,02,15,44,37.30
2019,11,02,15,45,37.30
2019,11,02,15,46,37.30
2019,11,02,15,47,37.40
2019,11,02,15,48,37.40
2019,11,02,15,49,37.40
2019,11,02,15,50,37.40
2019,11,02,15,51,37.50
2019,11,02,15,52,37.50
2019,11,02,15,53,37.50
2019,11,02,15,54,37.50
2019,11,02,15,55,37.60
2019,11,02,15,56,37.60
2019,11,02,15,57,37.60
2019,11,02,15,58,37.60
2019,11,02,15,59,37.60
2019,11,02,16,00,37.60
2019,11,02,16,01,37.70
2019,11,02,16,02,37.70
2019,11,02,16,03,37.70
2019,11,02,16,04,37.80
2019,11,02,16,05,37.80
2019,11,02,16,06,37.80
2019,11,02,16,07,37.80
2019,11,02,16,08,37.80
2019,11,02,16,09,37.80
2019,11,02,16,10,37.80
2019,11,02,16,11,37.80
2019,11,02,16,12,37.80
2019,11,02,16,13,37.70
2019,11,02,16,14,37.70
2019,11,02,16,15,37.70
2019,11,02,16,16,37.70
2019,11,02,16,17,37.70
2019,11,02,16,18,37.70
2019,11,02,16,19,37.70
2019,11,02,16,20,37.70
2019,11,02,16,21,37.70
2019,11,02,16,22,37.70
2019,11,02,16,23,37.70
2019,11,02,16,24,37.60
2019,11,02,16,25,37.60
2019,11,02,16,26,37.60
2019,11,02,16,27,37.50
2019,11,02,16,28,37.40
2019,11,02,16,29,37.40
2019,11,02,16,30,37.30
2019,11,02,16,31,37.40
2019,11,02,16,32,37.40
2019,11,02,16,33,37.40
2019,11,02,16,34,37.40
2019,11,02,16,35,37.40
2019,11,02,16,36,37.40
2019,11,02,16,37,37.40
2019,11,02,16,38,37.40
2019,11,02,16,39,37.40
2019,11,02,16,40,37.40
2019,11,02,16,41,37.40
2019,11,02,16,42,37.30
2019,11,02,16,43,37.30
2019,11,02,16,44,37.30
2019,11,02,16,45,37.20
2019,11,02,16,46,37.20
2019,11,02,16,47,37.20
2019,11,02,16,48,37.10
2019,11,02,16,49,37.10
2019,11,02,16,50,37.10
2019,11,02,16,51,37.00
2019,11,02,16,52,37.00
2019,11,02,16,53,37.00
2019,11,02,16,54,36.90
2019,11,02,16,55,36.90
2019,11,02,16,56,36.90
2019,11,02,16,57,36.90
2019,11,02,16,58,36.90
2019,11,02,16,59,36.80
2019,11,02,17,00,36.80
2019,11,02,17,01,36.80
2019,11,02,17,02,36.80
2019,11,02,17,03,36.70
2019,11,02,17,04,36.70
2019,11,02,17,05,36.70
2019,11,02,17,06,36.70
2019,11,02,17,07,36.70
2019,11,02,17,08,36.70
2019,11,02,17,09,36.60
2019,11,02,17,10,36.60
2019,11,02,17,11,36.60
2019,11,02,17,12,36.60
2019,11,02,17,13,36.60
2019,11,02,17,14,36.70
2019,11,02,17,15,36.70
2019,11,02,17,16,36.70
2019,11,02,17,17,36.70
2019,11,02,17,18,36.70
2019,11,02,17,19,36.70